Погода в Средних Тиганах

Россия / Республика Татарстан     55°09′37″N   50°11′44″E
темп.,
°C
ветер,
м/с
пор.,
м/с
влажн.,
%
обл.,
%
осадки,
мм/ч
давл.,
гПа
погр.,
м
17 апреля, сб
сб1700:00+7всв512725 0.0 1024277
03:00+5св511741 0.0 1025240
06:00+4всв511725 0.0 1026297
09:00+8всв710535 0.0 1026514
12:00+12всв78410 0.0 1025889
15:00+13всв67321 0.0 10251029
18:00+11св48450 0.0 1023237
21:00+7всв38580 0.0 1023138
18 апреля, вс
вс1800:00+5всв37680 0.0 1023128
03:00+4всв37740 0.0 1023138
06:00+4св37760 0.0 1023169
09:00+9св57560 0.0 1023603
12:00+12св67435 0.0 10221368
15:00+13всв67415 0.0 10221683
18:00+9всв8115911 0.0 1024770
21:00+5всв713475 0.0 1025556
19 апреля, пн
пн1900:00+3всв6135825 0.0 1026523
03:00+2всв8146297 0.0 1027550
06:000всв81560100 0.0 1028604
09:00+4всв101346100 0.0 10291002
12:00+7в91143100 0.0 10281416
15:00+8в9104069 0.0 10281672
18:00+7в7114176 0.0 10291133
21:00+4всв714415 0.0 1031552
20 апреля, вт
вт2000:00+2в613475 0.0 1031395
03:00+1в511560 0.0 1032287
06:00+1вюв512540 0.0 1033460
09:00+5вюв79320 0.0 10341023
12:00+8вюв78270 0.0 10331329
15:00+10вюв68250 0.0 10321512
18:00+8вюв610330 0.0 1030591
21:00+5вюв4114585 0.0 1031290
21 апреля, ср
ср2100:00+3вюв5115174 0.0 1031271
03:00+3юв61452100 0.0 1031368
06:00+3юв7154997 0.0 1030585
09:00+7юв91332100 0.0 1029850
12:00+11ююв91226100 0.0 10281187
15:00+12ююв81128100 0.0 10281460
18:00+10ююв71235100 0.0 10281018
21:00+8ю61144100 0.0 1028949